DW8482 Tortoreto Alto IT current weather conditions

sailwx.info

Wind from 306 at 2 knots gusting 4

Air temperature 21.1° C
Dewpoint 15.0° C

Last reported at 2014-Aug-20 03:52 UTC.
Time now 2014-Aug-20 04:55 UTC

Location: N 42°48' E 013°54'.
View on Google Maps.

See reports from other nearby stations

  
Tides and Currents Weather Stations Pressure Air Temp Water Temp Dewpoint Dewpoint Depression Visibility Wind Speed Wind Dir Waves Ship Positions
date/time (UTC)wind fromknots sea level pressurealtimeterstation pressurevisibilityair tempwater tempwave heightnotes
2014-Aug-20 03:52 306 2 gusting 4 21.1
2014-Aug-20 03:47 281 3 gusting 4 21.1
2014-Aug-20 03:42 284 3 gusting 4 21.7
2014-Aug-20 03:37 299 1 gusting 3 21.7
2014-Aug-20 03:32 299 3 gusting 3 21.1
2014-Aug-20 03:27 278 3 gusting 4 21.1
2014-Aug-20 03:22 278 3 gusting 4 20.6
2014-Aug-20 03:17 278 2 gusting 4 20.6
2014-Aug-20 03:12 273 3 gusting 4 20.6
2014-Aug-20 03:07 273 4 gusting 5 21.1
2014-Aug-20 03:02 273 4 gusting 5 21.1
2014-Aug-20 02:57 273 5 gusting 5 21.7
2014-Aug-20 02:52 273 4 gusting 5 21.7
2014-Aug-20 02:47 274 3 gusting 4 21.1
2014-Aug-20 02:42 274 3 gusting 5 21.1
2014-Aug-20 02:37 277 2 gusting 4 21.1
2014-Aug-20 02:32 275 3 gusting 4 21.1
2014-Aug-20 02:27 275 2 gusting 5 21.1
2014-Aug-20 02:22 271 5 gusting 6 21.1
2014-Aug-20 02:17 266 2 gusting 6 21.1
2014-Aug-20 02:12 267 4 gusting 6 21.1
2014-Aug-20 02:07 262 4 gusting 6 21.1
2014-Aug-20 02:02 262 4 gusting 6 21.1
2014-Aug-20 01:57 252 5 gusting 6 20.6
2014-Aug-20 01:52 259 5 gusting 6 20.6
2014-Aug-20 01:47 262 3 gusting 6 20.6
2014-Aug-20 01:42 260 4 gusting 6 20.6
2014-Aug-20 01:37 265 4 gusting 5 21.1
2014-Aug-20 01:32 266 3 gusting 5 21.1
2014-Aug-20 01:27 259 4 gusting 5 21.1
2014-Aug-20 01:22 259 5 gusting 5 21.1
2014-Aug-20 01:17 257 4 gusting 5 21.1
2014-Aug-20 01:12 262 4 gusting 5 21.1
2014-Aug-20 01:07 264 4 gusting 5 21.1
2014-Aug-20 01:02 262 3 gusting 6 21.1
2014-Aug-20 00:57 264 3 gusting 5 20.6
2014-Aug-20 00:52 254 3 gusting 6 20.6
2014-Aug-20 00:47 263 5 gusting 6 21.1
2014-Aug-20 00:42 267 3 gusting 6 21.1
2014-Aug-20 00:37 250 5 gusting 6 21.1
2014-Aug-20 00:32 252 5 gusting 6 21.1
2014-Aug-20 00:27 247 3 gusting 5 21.1
2014-Aug-20 00:22 252 4 gusting 6 21.1
2014-Aug-20 00:17 262 3 gusting 6 21.1
2014-Aug-20 00:12 266 5 gusting 5 21.1
2014-Aug-20 00:07 260 4 gusting 5 21.1
2014-Aug-20 00:02 256 4 gusting 4 21.1
2014-Aug-19 23:57 261 3 gusting 5 21.1
2014-Aug-19 23:52 259 0 gusting 5 21.1
2014-Aug-19 23:47 259 2 gusting 5 21.1
2014-Aug-19 23:42 264 3 gusting 6 21.1
2014-Aug-19 23:37 265 2 gusting 5 21.1
2014-Aug-19 23:32 253 2 gusting 6 21.1
2014-Aug-19 23:27 250 2 gusting 6 21.1
2014-Aug-19 23:22 247 2 gusting 5 21.1
2014-Aug-19 23:17 250 2 gusting 6 21.1
2014-Aug-19 23:12 267 5 gusting 5 21.1
2014-Aug-19 23:07 274 4 gusting 6 21.1
2014-Aug-19 23:02 265 3 gusting 6 21.1
2014-Aug-19 22:57 267 3 gusting 6 21.1
2014-Aug-19 22:52 265 4 gusting 6 21.1
2014-Aug-19 22:47 263 5 gusting 6 21.1
2014-Aug-19 22:42 265 4 gusting 6 21.1
2014-Aug-19 22:37 267 4 gusting 5 21.1
2014-Aug-19 22:32 254 4 gusting 6 21.1
2014-Aug-19 22:27 273 3 gusting 6 21.1
2014-Aug-19 22:22 261 3 gusting 6 21.7
2014-Aug-19 22:17 252 3 gusting 6 21.7
2014-Aug-19 22:12 273 4 gusting 5 21.7
2014-Aug-19 22:07 281 1 gusting 5 21.7
2014-Aug-19 22:02 297 2 gusting 5 21.7
2014-Aug-19 21:57 311 3 gusting 5 21.7
2014-Aug-19 21:52 268 2 gusting 5 21.7
2014-Aug-19 21:47 261 3 gusting 5 21.1
2014-Aug-19 21:42 275 0 gusting 5 21.1
2014-Aug-19 21:37 269 3 gusting 4 21.1
2014-Aug-19 21:32 274 4 gusting 6 21.1
2014-Aug-19 21:27 265 2 gusting 4 21.1
2014-Aug-19 21:22 277 1 gusting 3 21.1
2014-Aug-19 21:17 261 1 gusting 4 21.7
2014-Aug-19 21:12 244 3 gusting 4 21.7
2014-Aug-19 21:07 252 2 gusting 3 21.7
2014-Aug-19 21:02 257 21.7
2014-Aug-19 20:57 249 21.7
2014-Aug-19 20:52 242 2 gusting 4 21.7
2014-Aug-19 20:47 256 21.7
2014-Aug-19 20:42 256 21.7
2014-Aug-19 20:37 256 3 gusting 3 21.7
2014-Aug-19 20:32 256 3 gusting 3 21.7
2014-Aug-19 20:27 256 21.7
2014-Aug-19 20:22 256 2 gusting 2 21.7
2014-Aug-19 20:12 256 21.7
2014-Aug-19 20:07 261 2 gusting 3 21.7
2014-Aug-19 20:02 261 1 gusting 3 21.7
2014-Aug-19 19:57 319 21.7
2014-Aug-19 19:52 319 2 gusting 2 21.7
2014-Aug-19 19:47 331 2 gusting 2 21.7
2014-Aug-19 19:42 333 0 gusting 2 21.7
2014-Aug-19 19:37 337 21.7
2014-Aug-19 19:32 337 21.7
2014-Aug-19 19:27 337 21.7
2014-Aug-19 19:22 337 0 gusting 2 21.7
2014-Aug-19 19:17 005 0 gusting 2 21.7
2014-Aug-19 19:12 005 21.7
2014-Aug-19 19:07 005 2 gusting 2 21.7
2014-Aug-19 19:02 005 21.7
2014-Aug-19 18:57 005 21.7
2014-Aug-19 18:52 005 21.7
2014-Aug-19 18:47 005 2 gusting 3 21.7
2014-Aug-19 18:42 013 1 gusting 3 21.7
2014-Aug-19 18:37 014 1 gusting 3 21.7
2014-Aug-19 18:32 014 21.7
2014-Aug-19 18:27 014 21.7
2014-Aug-19 18:22 014 21.7
2014-Aug-19 18:17 014 21.7
2014-Aug-19 18:12 014 1 gusting 3 21.7
2014-Aug-19 18:07 018 21.7
2014-Aug-19 18:02 346 1 gusting 2 22.2
2014-Aug-19 17:57 355 1 gusting 3 22.2
2014-Aug-19 17:52 072 22.2
2014-Aug-19 17:47 074 22.2
2014-Aug-19 17:42 074 22.2
2014-Aug-19 17:37 074 22.2
2014-Aug-19 17:32 107 22.2
2014-Aug-19 17:27 107 22.2
2014-Aug-19 17:22 107 22.8
2014-Aug-19 17:17 087 4 gusting 4 22.8
2014-Aug-19 17:12 055 0 gusting 3 22.8
2014-Aug-19 17:07 065 2 gusting 3 22.8
2014-Aug-19 17:02 065 2 gusting 3 22.8
2014-Aug-19 16:57 067 2 gusting 3 23.3
2014-Aug-19 16:52 067 0 gusting 3 23.3
2014-Aug-19 16:47 083 1 gusting 3 23.3
2014-Aug-19 16:42 059 3 gusting 6 23.3
2014-Aug-19 16:37 057 2 gusting 6 23.3
2014-Aug-19 16:32 074 3 gusting 6 23.9
2014-Aug-19 16:27 082 2 gusting 7 23.9
2014-Aug-19 16:22 069 3 gusting 7 23.9
2014-Aug-19 16:17 075 3 gusting 8 24.4
2014-Aug-19 16:12 039 3 gusting 7 24.4
2014-Aug-19 16:07 075 2 gusting 6 24.4
2014-Aug-19 16:02 070 3 gusting 6 25.0
2014-Aug-19 15:57 052 4 gusting 7 25.6
2014-Aug-19 15:52 046 3 gusting 7 25.0
2014-Aug-19 15:47 063 3 gusting 6 25.0
2014-Aug-19 15:42 066 1 gusting 6 25.0
2014-Aug-19 15:37 050 3 gusting 7 25.0
2014-Aug-19 15:32 063 6 gusting 8 25.0
2014-Aug-19 15:27 063 2 gusting 5 25.6
2014-Aug-19 15:22 030 25.0
2014-Aug-19 15:17 078 3 gusting 7 25.6
2014-Aug-19 15:12 066 6 gusting 10 25.0
2014-Aug-19 15:07 050 6 gusting 7 24.4
2014-Aug-19 15:02 063 4 gusting 9 24.4
2014-Aug-19 14:57 072 8 gusting 9 25.0
2014-Aug-19 14:52 055 5 gusting 9 25.0
2014-Aug-19 14:47 044 9 gusting 9 25.0
2014-Aug-19 14:42 074 8 gusting 9 25.0
2014-Aug-19 14:37 102 0 gusting 7 25.0
2014-Aug-19 14:32 040 6 gusting 10 25.0
2014-Aug-19 14:27 067 6 gusting 9 25.0
2014-Aug-19 14:22 061 7 gusting 9 25.0
2014-Aug-19 14:17 086 5 gusting 11 25.0
2014-Aug-19 14:12 077 3 gusting 9 25.0
2014-Aug-19 14:07 071 6 gusting 9 25.0
2014-Aug-19 14:02 075 7 gusting 10 24.4
2014-Aug-19 13:57 046 6 gusting 10 25.0
2014-Aug-19 13:52 071 9 gusting 12 25.0
2014-Aug-19 13:47 045 8 gusting 10 25.0
2014-Aug-19 13:42 075 7 gusting 13 25.6
2014-Aug-19 13:37 067 6 gusting 12 26.1
2014-Aug-19 13:32 057 10 gusting 10 25.6
2014-Aug-19 13:27 051 6 gusting 11 25.0
2014-Aug-19 13:22 078 8 gusting 11 25.6
2014-Aug-19 13:17 063 8 gusting 11 25.6
2014-Aug-19 13:12 059 6 gusting 11 25.0
2014-Aug-19 13:07 065 6 gusting 9 25.0
2014-Aug-19 13:02 067 4 gusting 9 25.0
2014-Aug-19 12:57 034 1 gusting 10 24.4
2014-Aug-19 12:52 023 5 gusting 11 24.4
2014-Aug-19 12:47 071 7 gusting 11 24.4
2014-Aug-19 12:42 057 9 gusting 11 24.4
2014-Aug-19 12:37 073 7 gusting 9 24.4
2014-Aug-19 12:32 067 6 gusting 11 24.4
2014-Aug-19 12:27 071 8 gusting 11 25.0
2014-Aug-19 12:22 063 10 gusting 13 25.6
2014-Aug-19 12:17 021 6 gusting 13 25.0
2014-Aug-19 12:12 058 7 gusting 12 26.1
2014-Aug-19 12:07 053 12 gusting 13 25.6
2014-Aug-19 12:02 065 10 gusting 13 26.1
2014-Aug-19 11:57 053 8 gusting 12 26.1
2014-Aug-19 11:52 038 9 gusting 13 25.6
2014-Aug-19 11:47 096 6 gusting 13 25.6
2014-Aug-19 11:42 022 10 gusting 12 25.6
2014-Aug-19 11:37 077 6 gusting 11 25.6
2014-Aug-19 11:32 074 9 gusting 12 26.1
2014-Aug-19 11:27 065 6 gusting 11 26.1
2014-Aug-19 11:22 005 6 gusting 11 25.0
2014-Aug-19 11:17 036 6 gusting 10 25.0
2014-Aug-19 11:12 070 7 gusting 7 24.4
2014-Aug-19 11:07 049 8 gusting 9 24.4
2014-Aug-19 11:02 031 4 gusting 13 24.4
2014-Aug-19 10:57 047 8 gusting 11 25.0
2014-Aug-19 10:52 046 7 gusting 9 24.4
2014-Aug-19 10:47 050 6 gusting 12 25.0
2014-Aug-19 10:42 026 4 gusting 10 25.0
2014-Aug-19 10:37 057 6 gusting 10 24.4
2014-Aug-19 10:32 012 5 gusting 12 24.4
2014-Aug-19 10:27 067 11 gusting 12 24.4
2014-Aug-19 10:22 094 1 gusting 13 23.9
2014-Aug-19 10:17 057 9 gusting 13 23.9
2014-Aug-19 10:12 043 6 gusting 12 24.4
2014-Aug-19 10:07 041 6 gusting 10 24.4
2014-Aug-19 10:02 071 7 gusting 10 24.4
2014-Aug-19 09:57 055 9 gusting 10 23.9
2014-Aug-19 09:47 057 7 gusting 9 24.4
2014-Aug-19 09:42 074 7 gusting 9 25.6
2014-Aug-19 09:37 069 4 gusting 7 25.6
2014-Aug-19 09:32 028 6 gusting 8 25.0
2014-Aug-19 09:27 069 4 gusting 6 25.6
2014-Aug-19 09:22 032 6 gusting 8 25.6
2014-Aug-19 09:17 040 5 gusting 7 25.0
2014-Aug-19 09:12 034 6 gusting 6 25.0
2014-Aug-19 09:07 020 6 gusting 9 25.0
2014-Aug-19 09:02 068 9 gusting 9 25.0
2014-Aug-19 08:57 061 6 gusting 7 25.0
2014-Aug-19 08:52 051 1 gusting 7 25.0
2014-Aug-19 08:47 067 25.0
2014-Aug-19 08:42 076 25.0
2014-Aug-19 08:37 053 4 gusting 5 24.4
2014-Aug-19 08:32 087 2 gusting 5 24.4
2014-Aug-19 08:27 057 1 gusting 4 24.4
2014-Aug-19 08:22 061 3 gusting 6 25.0
2014-Aug-19 08:17 065 4 gusting 4 25.0
2014-Aug-19 08:12 034 2 gusting 4 25.0
2014-Aug-19 08:07 046 24.4
2014-Aug-19 08:02 085 2 gusting 4 24.4
2014-Aug-19 07:57 063 2 gusting 4 24.4
2014-Aug-19 07:52 292 23.9
2014-Aug-19 07:47 282 23.9
2014-Aug-19 07:42 265 23.9
2014-Aug-19 07:37 269 23.3
2014-Aug-19 07:32 273 0 gusting 3 23.3
2014-Aug-19 07:27 273 23.3
2014-Aug-19 07:22 027 23.3
2014-Aug-19 07:17 123 23.3
2014-Aug-19 07:12 005 2 gusting 5 23.3
2014-Aug-19 07:07 011 0 gusting 3 23.3
2014-Aug-19 07:02 041 23.3
2014-Aug-19 06:57 336 0 gusting 2 23.3
2014-Aug-19 06:52 292 0 gusting 3 23.3
2014-Aug-19 06:47 022 22.8
2014-Aug-19 06:42 005 2 gusting 4 22.8
2014-Aug-19 06:37 024 22.8
2014-Aug-19 06:32 331 22.2
2014-Aug-19 06:27 325 2 gusting 3 22.2
2014-Aug-19 06:22 344 21.7
2014-Aug-19 06:17 331 1 gusting 3 21.1
2014-Aug-19 06:12 300 21.1
2014-Aug-19 06:07 279 20.6
2014-Aug-19 06:02 273 1 gusting 5 20.0
2014-Aug-19 05:57 265 3 gusting 5 19.4
2014-Aug-19 05:52 263 3 gusting 6 20.0
2014-Aug-19 05:47 247 6 gusting 6 20.0
2014-Aug-19 05:42 260 4 gusting 6 20.6
2014-Aug-19 05:37 249 5 gusting 6 21.1
2014-Aug-19 05:32 286 3 gusting 3 21.1
2014-Aug-19 05:27 337 0 gusting 3 20.6
2014-Aug-19 05:22 010 20.6
2014-Aug-19 05:17 270 20.0
2014-Aug-19 05:12 270 1 gusting 4 20.0
2014-Aug-19 05:07 270 4 gusting 5 20.0
2014-Aug-19 05:02 269 4 gusting 5 20.0
2014-Aug-19 04:57 267 4 gusting 5 20.0
2014-Aug-19 04:52 259 4 gusting 5 20.0
2014-Aug-19 04:47 261 2 gusting 6 20.0
2014-Aug-19 04:42 263 3 gusting 5 20.0
2014-Aug-19 04:37 267 3 gusting 6 20.0
2014-Aug-19 04:32 268 3 gusting 4 20.0
2014-Aug-19 04:27 269 3 gusting 4 20.0
2014-Aug-19 04:22 271 3 gusting 4 20.0
2014-Aug-19 04:17 286 4 gusting 5 20.0
2014-Aug-19 04:12 287 2 gusting 4 20.0
2014-Aug-19 04:07 272 2 gusting 4 20.0
2014-Aug-19 04:02 284 3 gusting 4 20.0
2014-Aug-19 03:57 281 2 gusting 5 20.0
2014-Aug-19 03:52 261 4 gusting 6 20.0
2014-Aug-19 03:47 277 4 gusting 5 20.0
2014-Aug-19 03:42 289 2 gusting 5 19.4
2014-Aug-19 03:37 268 4 gusting 5 19.4
2014-Aug-19 03:32 265 4 gusting 6 18.9
2014-Aug-19 03:27 247 5 gusting 6 19.4
2014-Aug-19 03:22 267 5 gusting 6 19.4
2014-Aug-19 03:17 276 2 gusting 5 19.4
2014-Aug-19 03:12 254 5 gusting 6 19.4
2014-Aug-19 03:07 267 5 gusting 5 19.4
2014-Aug-19 03:02 263 4 gusting 6 18.9
2014-Aug-19 02:57 252 4 gusting 6 19.4
2014-Aug-19 02:52 259 5 gusting 6 20.0
2014-Aug-19 02:47 261 6 gusting 4 20.6
2014-Aug-19 02:42 254 2 gusting 3 20.6
2014-Aug-19 02:37 259 3 gusting 4 20.6
2014-Aug-19 02:32 279 2 gusting 5 20.6
2014-Aug-19 02:27 276 3 gusting 6 20.6
2014-Aug-19 02:22 276 3 gusting 5 20.6
2014-Aug-19 02:17 271 2 gusting 6 20.6
2014-Aug-19 02:12 298 1 gusting 6 20.6
2014-Aug-19 02:07 267 4 gusting 6 20.6
2014-Aug-19 02:02 259 5 gusting 6 20.6
2014-Aug-19 01:57 288 6 gusting 6 20.6
2014-Aug-19 01:52 277 2 gusting 6 20.6
2014-Aug-19 01:47 311 4 gusting 8 20.6
2014-Aug-19 01:42 275 2 gusting 7 20.6
2014-Aug-19 01:37 280 3 gusting 6 21.1
2014-Aug-19 01:32 281 2 gusting 6 21.1
2014-Aug-19 01:27 284 2 gusting 6 21.1
2014-Aug-19 01:22 284 2 gusting 4 21.1
2014-Aug-19 01:17 302 2 gusting 4 20.6
2014-Aug-19 01:12 271 20.6
2014-Aug-19 01:07 294 0 gusting 4 20.0
2014-Aug-19 01:02 285 1 gusting 5 20.0
2014-Aug-19 00:57 276 1 gusting 5 20.6
2014-Aug-19 00:52 257 5 gusting 6 20.6
2014-Aug-19 00:47 267 4 gusting 6 20.6
2014-Aug-19 00:42 252 3 gusting 6 20.6
2014-Aug-19 00:37 252 3 gusting 6 20.6
2014-Aug-19 00:32 268 6 gusting 6 20.6
2014-Aug-19 00:27 265 5 gusting 6 20.6
2014-Aug-19 00:22 271 3 gusting 5 20.6
2014-Aug-19 00:17 270 2 gusting 5 20.6
2014-Aug-19 00:12 267 5 gusting 5 20.6
2014-Aug-19 00:07 267 4 gusting 5 20.6
2014-Aug-19 00:02 263 3 gusting 5 20.6
2014-Aug-18 23:57 275 3 gusting 5 20.0
2014-Aug-18 23:52 261 1 gusting 6 20.0
2014-Aug-18 23:47 261 1 gusting 6 20.0
2014-Aug-18 23:42 254 4 gusting 7 20.0
2014-Aug-18 23:37 257 4 gusting 8 20.0
2014-Aug-18 23:32 243 5 gusting 8 20.0
2014-Aug-18 23:27 258 6 gusting 6 20.6
2014-Aug-18 23:22 246 3 gusting 5 20.6
2014-Aug-18 23:17 261 4 gusting 5 20.6
2014-Aug-18 23:12 254 2 gusting 4 20.0
2014-Aug-18 23:07 263 3 gusting 5 20.0
2014-Aug-18 23:02 263 4 gusting 5 20.0
2014-Aug-18 22:57 263 4 gusting 5 20.0
2014-Aug-18 22:52 263 4 gusting 5 20.0
2014-Aug-18 22:47 263 5 gusting 6 20.0
2014-Aug-18 22:42 250 6 gusting 6 20.0
2014-Aug-18 22:37 254 5 gusting 6 20.0
2014-Aug-18 22:32 252 5 gusting 5 20.6
2014-Aug-18 22:27 269 5 gusting 6 20.6
2014-Aug-18 22:22 259 5 gusting 7 21.1
2014-Aug-18 22:17 262 3 gusting 7 21.1
2014-Aug-18 22:12 266 2 gusting 4 21.1
2014-Aug-18 22:07 265 2 gusting 5 21.1
2014-Aug-18 22:02 279 21.1
2014-Aug-18 21:57 251 1 gusting 6 21.1
2014-Aug-18 21:52 254 3 gusting 4 21.1
2014-Aug-18 21:47 209 0 gusting 3 21.1
2014-Aug-18 21:42 220 1 gusting 2 21.1
2014-Aug-18 21:32 005 21.1
2014-Aug-18 21:27 005 21.1
2014-Aug-18 21:22 005 21.1
2014-Aug-18 21:17 005 21.1
2014-Aug-18 21:12 005 21.1
2014-Aug-18 21:07 005 21.1
2014-Aug-18 21:02 355 21.1
2014-Aug-18 20:57 355 21.1
2014-Aug-18 20:52 355 21.1
2014-Aug-18 20:47 009 21.1
2014-Aug-18 20:42 011 21.1
2014-Aug-18 20:37 019 21.1
2014-Aug-18 20:32 105 21.1
2014-Aug-18 20:27 074 2 gusting 2 21.1
2014-Aug-18 20:22 098 21.1
2014-Aug-18 20:17 126 21.1
2014-Aug-18 20:12 109 2 gusting 6 21.1
2014-Aug-18 20:07 094 0 gusting 5 21.1
2014-Aug-18 20:02 086 0 gusting 5 21.1
2014-Aug-18 19:57 101 1 gusting 5 21.1
2014-Aug-18 19:52 078 1 gusting 4 21.1
2014-Aug-18 19:47 077 1 gusting 5 21.1
2014-Aug-18 19:42 085 21.1
2014-Aug-18 19:37 156 21.1
2014-Aug-18 19:32 355 21.1
2014-Aug-18 19:27 345 21.1
2014-Aug-18 19:22 065 21.1
2014-Aug-18 19:17 017 21.1
2014-Aug-18 19:12 102 21.7
2014-Aug-18 19:07 125 1 gusting 3 21.7
2014-Aug-18 19:02 087 21.7
2014-Aug-18 18:57 083 21.7
2014-Aug-18 18:52 104 21.7
2014-Aug-18 18:47 090 21.7
2014-Aug-18 18:42 053 0 gusting 5 21.7
2014-Aug-18 18:37 078 0 gusting 6 21.7
2014-Aug-18 18:32 094 2 gusting 6 21.7
2014-Aug-18 18:27 082 0 gusting 6 22.2
2014-Aug-18 18:22 023 2 gusting 6 22.2
2014-Aug-18 18:17 066 22.2
2014-Aug-18 18:12 095 0 gusting 6 22.2
2014-Aug-18 18:07 120 0 gusting 4 22.2
2014-Aug-18 18:02 064 22.2
2014-Aug-18 17:57 094 0 gusting 4 22.8
2014-Aug-18 17:52 111 1 gusting 4 22.8
2014-Aug-18 17:47 071 22.8
2014-Aug-18 17:42 096 22.8
2014-Aug-18 17:37 117 0 gusting 5 23.3
2014-Aug-18 17:32 153 23.3
2014-Aug-18 17:27 042 0 gusting 4 23.9
2014-Aug-18 17:22 064 0 gusting 6 23.9
2014-Aug-18 17:17 049 1 gusting 6 23.9
2014-Aug-18 17:12 070 24.4
2014-Aug-18 17:07 101 6 gusting 6 24.4
2014-Aug-18 17:02 025 24.4
2014-Aug-18 16:57 140 1 gusting 6 24.4
2014-Aug-18 16:52 049 2 gusting 8 24.4
2014-Aug-18 16:47 061 4 gusting 9 24.4
2014-Aug-18 16:42 066 3 gusting 6 25.0
2014-Aug-18 16:37 071 1 gusting 7 24.4
2014-Aug-18 16:32 089 6 gusting 8 24.4
2014-Aug-18 16:27 128 2 gusting 8 25.0
2014-Aug-18 16:22 082 5 gusting 8 25.0
2014-Aug-18 16:17 094 5 gusting 7 25.0
2014-Aug-18 16:12 117 6 gusting 8 25.0
2014-Aug-18 16:07 065 4 gusting 7 25.0
2014-Aug-18 16:02 101 4 gusting 6 25.6
2014-Aug-18 15:57 042 3 gusting 9 25.6
2014-Aug-18 15:52 077 2 gusting 8 25.6
2014-Aug-18 15:47 076 9 gusting 9 25.6
2014-Aug-18 15:42 072 3 gusting 11 25.6
2014-Aug-18 15:37 052 4 gusting 8 25.6
2014-Aug-18 15:32 074 3 gusting 8 25.6
2014-Aug-18 15:27 107 6 gusting 9 25.6
2014-Aug-18 15:22 064 0 gusting 6 25.6
2014-Aug-18 15:17 134 6 gusting 9 25.6
2014-Aug-18 15:12 071 3 gusting 8 26.1
2014-Aug-18 15:07 077 6 gusting 8 25.6
2014-Aug-18 15:02 062 2 gusting 6 25.6
2014-Aug-18 14:57 072 0 gusting 9 25.6
2014-Aug-18 14:52 137 4 gusting 12 26.1
2014-Aug-18 14:47 065 2 gusting 10 25.6
2014-Aug-18 14:42 061 3 gusting 9 26.1
2014-Aug-18 14:37 041 2 gusting 9 26.1
2014-Aug-18 14:32 081 5 gusting 9 25.6
2014-Aug-18 14:27 077 6 gusting 10 25.6
2014-Aug-18 14:22 050 7 gusting 12 26.1
2014-Aug-18 14:17 138 6 gusting 11 25.6
2014-Aug-18 14:12 073 8 gusting 11 25.6
2014-Aug-18 14:07 096 6 gusting 13 25.6
2014-Aug-18 14:02 081 8 gusting 13 25.0
2014-Aug-18 13:57 101 9 gusting 13 25.6
2014-Aug-18 13:52 108 6 gusting 13 25.6
2014-Aug-18 13:47 090 8 gusting 14 25.6
2014-Aug-18 13:42 046 6 gusting 13 25.6
2014-Aug-18 13:37 088 4 gusting 13 25.6
2014-Aug-18 13:32 088 8 gusting 11 26.1
2014-Aug-18 13:27 084 8 gusting 11 26.1
2014-Aug-18 13:22 071 10 gusting 14 25.6
2014-Aug-18 13:17 084 9 gusting 13 25.6
2014-Aug-18 13:12 063 11 gusting 14 25.6
2014-Aug-18 13:07 071 11 gusting 15 26.1
2014-Aug-18 13:02 074 11 gusting 15 25.6
2014-Aug-18 12:57 101 9 gusting 13 26.1
2014-Aug-18 12:52 055 10 gusting 13 26.1
2014-Aug-18 12:47 059 11 gusting 13 25.6
2014-Aug-18 12:42 091 13 gusting 14 25.6
2014-Aug-18 12:37 080 9 gusting 13 26.1
2014-Aug-18 12:32 066 10 gusting 14 25.6
2014-Aug-18 12:27 046 5 gusting 11 25.6
2014-Aug-18 12:22 077 8 gusting 15 25.6
2014-Aug-18 12:17 054 6 gusting 15 25.6
2014-Aug-18 12:12 070 12 gusting 15 25.6
2014-Aug-18 12:07 057 9 gusting 12 26.1
2014-Aug-18 12:02 092 4 gusting 12 25.6
2014-Aug-18 11:57 096 7 gusting 13 25.0
2014-Aug-18 11:52 076 9 gusting 13 25.6
2014-Aug-18 11:47 071 11 gusting 13 25.6
2014-Aug-18 11:42 100 8 gusting 12 25.6
2014-Aug-18 11:37 079 13 gusting 13 25.6
2014-Aug-18 11:32 078 6 gusting 13 25.6
2014-Aug-18 11:27 080 9 gusting 12 25.6
2014-Aug-18 11:22 063 6 gusting 13 25.6
2014-Aug-18 11:17 061 11 gusting 13 25.6
2014-Aug-18 11:12 066 7 gusting 12 26.1
2014-Aug-18 11:07 082 8 gusting 12 25.6
2014-Aug-18 11:02 044 7 gusting 12 25.6
2014-Aug-18 10:57 050 9 gusting 13 26.1
2014-Aug-18 10:52 054 7 gusting 13 25.6
2014-Aug-18 10:47 043 8 gusting 12 25.6
2014-Aug-18 10:42 070 6 gusting 10 25.6
2014-Aug-18 10:37 075 7 gusting 11 25.6
2014-Aug-18 10:32 089 6 gusting 11 25.0
2014-Aug-18 10:27 146 3 gusting 11 25.6
2014-Aug-18 10:22 061 10 gusting 12 25.6
2014-Aug-18 10:17 090 6 gusting 11 25.6
2014-Aug-18 10:12 076 9 gusting 11 25.6
2014-Aug-18 10:07 093 6 gusting 11 25.6
2014-Aug-18 10:02 083 6 gusting 9 25.6
2014-Aug-18 09:57 076 6 gusting 8 25.6
2014-Aug-18 09:52 068 6 gusting 8 25.6
2014-Aug-18 09:47 094 7 gusting 9 25.6
2014-Aug-18 09:42 067 6 gusting 7 26.1
2014-Aug-18 09:37 055 6 gusting 6 25.6
2014-Aug-18 09:32 054 3 gusting 7 25.6
2014-Aug-18 09:27 032 2 gusting 7 25.6
2014-Aug-18 09:22 082 7 gusting 7 25.6
2014-Aug-18 09:17 063 3 gusting 7 25.6
2014-Aug-18 09:12 044 5 gusting 7 25.6
2014-Aug-18 09:07 056 4 gusting 6 25.6
2014-Aug-18 09:02 106 1 gusting 6 25.6
2014-Aug-18 08:57 186 25.6
2014-Aug-18 08:52 098 2 gusting 6 25.0
2014-Aug-18 08:47 096 25.0
2014-Aug-18 08:42 074 3 gusting 6 25.0
2014-Aug-18 08:37 094 4 gusting 6 25.0
2014-Aug-18 08:32 057 25.6
2014-Aug-18 08:27 105 3 gusting 3 25.0
2014-Aug-18 08:22 058 2 gusting 3 25.0
2014-Aug-18 08:17 092 25.0
2014-Aug-18 08:12 051 2 gusting 2 25.0
2014-Aug-18 08:07 096 24.4
2014-Aug-18 08:02 140 24.4
2014-Aug-18 07:57 146 0 gusting 3 25.0
2014-Aug-18 07:52 156 24.4
2014-Aug-18 07:47 159 24.4
2014-Aug-18 07:42 127 24.4
2014-Aug-18 07:37 091 24.4
2014-Aug-18 07:32 090 23.9
2014-Aug-18 07:27 064 23.9
2014-Aug-18 07:22 050 23.9
2014-Aug-18 07:17 078 23.3
2014-Aug-18 07:12 069 23.3
2014-Aug-18 07:07 048 23.3
2014-Aug-18 07:02 069 1 gusting 3 23.3
2014-Aug-18 06:57 066 23.3
2014-Aug-18 06:52 062 23.3
2014-Aug-18 06:47 267 22.8
2014-Aug-18 06:42 267 22.2
2014-Aug-18 06:37 266 21.7
2014-Aug-18 06:32 266 21.7
2014-Aug-18 06:27 266 21.7
2014-Aug-18 06:22 266 21.1
2014-Aug-18 06:17 266 21.1
2014-Aug-18 06:12 266 20.6
2014-Aug-18 06:07 265 2 gusting 4 20.6
2014-Aug-18 06:02 265 1 gusting 3 20.6
2014-Aug-18 05:57 265 2 gusting 4 20.6
2014-Aug-18 05:52 265 1 gusting 4 20.0
2014-Aug-18 05:47 265 20.0
2014-Aug-18 04:52 265 2 gusting 3 18.3
2014-Aug-18 04:47 250 1 gusting 3 18.3
2014-Aug-18 04:42 244 2 gusting 3 18.3
2014-Aug-18 04:37 244 18.3
2014-Aug-18 04:32 244 1 gusting 2 18.9
2014-Aug-18 04:27 244 0 gusting 2 18.9
2014-Aug-18 04:22 244 1 gusting 3 18.9
2014-Aug-18 04:17 244 1 gusting 1 18.9
2014-Aug-18 04:12 244 18.9
2014-Aug-18 04:07 244 0 gusting 2 18.9
2014-Aug-18 04:02 244 1 gusting 3 18.9